KF0AIT Weather Reports


Display with metric or nautical units.
time (UTC)temp
F
wind
direction
speed
MPH
gust
MPH
rain 1hr
in
rain 24hr
in
rain mn
in
humidity
%
barometer
mb
20260904180924 83 0 0.0 0.0 0.00 0.00 0.00 52 1008.1
20260904180024 83 0 0.0 0.0 0.00 0.00 0.00 52 1008.1
20260904175403 83 0 0.0 0.0 0.00 0.00 0.00 52 1008.1
20260904174503 83 22 0.0 1.0 0.00 0.00 0.00 52 1008.1
20260904173603 83 22 0.0 1.0 0.00 0.00 0.00 52 1008.1
20260904172724 83 22 1.0 1.0 0.00 0.00 0.00 55 1008.1
20260904171803 83 0 0.0 0.0 0.00 0.00 0.00 55 1008.1
20260904170903 82 0 0.0 0.0 0.00 0.00 0.00 58 1008.1
20260904170003 81 0 0.0 0.0 0.00 0.00 0.00 58 1008.1
20260904165403 81 360 0.0 1.0 0.00 0.00 0.00 58 1008.1
20260904164503 80 360 0.0 3.0 0.00 0.00 0.00 62 1008.1
20260904163603 80 0 0.0 0.0 0.00 0.00 0.00 64 1008.1
20260904162724 79 0 0.0 0.0 0.00 0.00 0.00 65 1008.1
20260904161803 79 0 0.0 0.0 0.00 0.00 0.00 68 1008.1
20260904160903 78 0 0.0 0.0 0.00 0.00 0.00 70 1008.1
20260904160003 78 67 0.0 1.0 0.00 0.00 0.00 70 1008.1
20260904155403 77 67 0.0 1.0 0.00 0.00 0.00 72 1008.1
20260904154504 77 0 0.0 0.0 0.00 0.00 0.00 76 1008.1
20260904153603 76 45 0.0 1.0 0.00 0.00 0.00 80 1008.1
20260904152703 76 0 0.0 0.0 0.00 0.00 0.00 82 1008.1
20260904151803 75 0 0.0 0.0 0.00 0.00 0.00 83 1008.1
20260904150903 74 0 0.0 0.0 0.00 0.00 0.00 83 1008.1
20260904150003 74 45 0.0 1.0 0.00 0.00 0.00 84 1008.1
20260904145424 74 0 0.0 0.0 0.00 0.00 0.00 84 1008.1
20260904144503 74 0 0.0 0.0 0.00 0.00 0.00 84 1008.1
20260904143603 73 67 0.0 1.0 0.00 0.00 0.00 85 1008.1
20260904142703 73 67 0.0 1.0 0.00 0.00 0.00 85 1007.1
20260904141803 72 0 0.0 0.0 0.00 0.00 0.00 84 1007.1
20260904140903 72 0 0.0 0.0 0.00 0.00 0.00 85 1008.1
20260904140024 71 0 0.0 0.0 0.00 0.00 0.00 85 1007.1
20260904135403 71 0 0.0 0.0 0.00 0.00 0.00 85 1007.1
20260904134503 71 0 0.0 0.0 0.00 0.00 0.00 86 1008.1
20260904133603 71 0 0.0 0.0 0.00 0.00 0.00 86 1008.1
20260904132703 71 0 0.0 0.0 0.00 0.00 0.00 86 1008.1
20260904131803 70 0 0.0 0.0 0.00 0.00 0.00 86 1008.1
20260904130903 70 0 0.0 0.0 0.00 0.00 0.00 86 1008.1
20260904130003 70 0 0.0 0.0 0.00 0.00 0.00 86 1008.1
20260904125403 70 0 0.0 0.0 0.00 0.00 0.00 86 1008.1
20260904124504 70 0 0.0 0.0 0.00 0.00 0.00 88 1007.1
20260904123625 70 0 0.0 0.0 0.00 0.00 0.00 88 1007.1
20260904122703 70 0 0.0 0.0 0.00 0.00 0.00 88 1007.1
20260904121803 70 0 0.0 0.0 0.00 0.00 0.00 88 1007.1
20260904120924 70 0 0.0 0.0 0.00 0.00 0.00 88 1007.1
20260904120025 70 0 0.0 0.0 0.00 0.00 0.00 88 1007.1
20260904115403 70 0 0.0 0.0 0.00 0.00 0.00 88 1007.1
20260904114503 70 0 0.0 0.0 0.00 0.00 0.00 88 1007.1
20260904113603 70 0 0.0 0.0 0.00 0.00 0.00 88 1007.1
20260904112703 70 0 0.0 0.0 0.00 0.00 0.00 89 1006.0
20260904111803 70 0 0.0 0.0 0.00 0.00 0.00 88 1006.0
20260904110924 70 0 0.0 0.0 0.00 0.00 0.00 87 1006.0
20260904110003 70 0 0.0 0.0 0.00 0.00 0.00 86 1006.0
20260904105403 70 0 0.0 0.0 0.00 0.00 0.00 86 1006.0
20260904104503 70 0 0.0 0.0 0.00 0.00 0.00 85 1006.0
20260904103603 70 0 0.0 0.0 0.00 0.00 0.00 85 1006.0
20260904102724 70 0 0.0 0.0 0.00 0.00 0.00 85 1006.0
20260904101803 70 0 0.0 0.0 0.00 0.00 0.00 85 1006.0
20260904100903 70 0 0.0 0.0 0.00 0.00 0.00 84 1006.0
20260904100003 71 0 0.0 0.0 0.00 0.00 0.00 83 1005.0
20260904095403 71 0 0.0 0.0 0.00 0.00 0.00 83 1005.0
20260904094503 71 0 0.0 0.0 0.00 0.00 0.00 83 1005.0
20260904093603 71 0 0.0 0.0 0.00 0.00 0.00 82 1005.0
20260904092703 71 157 0.0 1.0 0.00 0.00 0.00 82 1005.0
20260904091803 71 0 0.0 0.0 0.00 0.00 0.00 82 1005.0
20260904090903 71 0 0.0 0.0 0.00 0.00 0.00 82 1005.0
20260904090003 71 0 0.0 0.0 0.00 0.00 0.00 81 1005.0
20260904085403 72 0 0.0 0.0 0.00 0.00 0.00 81 1005.0
20260904084503 72 0 0.0 0.0 0.00 0.00 0.00 81 1005.0
20260904083603 72 0 0.0 0.0 0.00 0.00 0.00 81 1005.0
20260904082703 72 0 0.0 0.0 0.00 0.00 0.00 81 1005.0
20260904081803 72 0 0.0 0.0 0.00 0.00 0.00 80 1005.0
20260904080903 72 0 0.0 0.0 0.00 0.00 0.00 80 1005.0
20260904080003 72 0 0.0 0.0 0.00 0.00 0.00 80 1005.0
20260904075424 72 0 0.0 0.0 0.00 0.00 0.00 79 1005.0
20260904074503 72 0 0.0 0.0 0.00 0.00 0.00 79 1005.0
20260904073603 73 0 0.0 0.0 0.00 0.00 0.00 79 1005.0
20260904072703 73 0 0.0 0.0 0.00 0.00 0.00 79 1005.0
20260904071803 73 0 0.0 0.0 0.00 0.00 0.00 78 1005.0
20260904070903 73 0 0.0 0.0 0.00 0.00 0.00 78 1005.0
20260904070003 73 0 0.0 0.0 0.00 0.00 0.00 78 1005.0
20260904065424 73 0 0.0 0.0 0.00 0.00 0.00 78 1005.0
20260904064503 74 0 0.0 0.0 0.00 0.00 0.00 77 1005.0
20260904063624 74 0 0.0 0.0 0.00 0.00 0.00 76 1005.0
20260904062703 74 0 0.0 0.0 0.00 0.00 0.00 76 1005.0
20260904061803 74 0 0.0 0.0 0.00 0.00 0.00 75 1005.0
20260904060924 74 0 0.0 0.0 0.00 0.00 0.00 75 1005.0
20260904060003 74 0 0.0 0.0 0.00 0.00 0.00 75 1005.0
20260904055403 74 0 0.0 0.0 0.00 0.00 0.00 74 1005.0
20260904054503 74 0 0.0 0.0 0.00 0.00 0.00 74 1005.0
20260904053603 75 0 0.0 0.0 0.00 0.00 0.00 73 1005.0
20260904052703 75 0 0.0 0.0 0.00 0.00 0.00 73 1005.0
20260904051803 75 0 0.0 0.0 0.00 0.00 0.00 72 1005.0
20260904050924 75 0 0.0 0.0 0.00 0.00 0.00 72 1003.9
20260904050003 76 0 0.0 0.0 0.00 0.00 0.00 71 1003.9
20260904045424 76 0 0.0 0.0 0.00 0.00 0.00 71 1003.9
20260904044503 76 0 0.0 0.0 0.00 0.00 0.00 71 1003.9
20260904043603 76 0 0.0 0.0 0.00 0.00 0.00 70 1003.9
20260904042703 77 0 0.0 0.0 0.00 0.00 0.00 70 1003.9
20260904041803 77 0 0.0 0.0 0.00 0.00 0.00 69 1003.9
20260904040903 77 0 0.0 0.0 0.00 0.00 0.00 69 1003.9
20260904040003 77 0 0.0 0.0 0.00 0.00 0.00 68 1003.9
20260904035403 77 0 0.0 0.0 0.00 0.00 0.00 68 1003.9
20260904034503 78 0 0.0 0.0 0.00 0.00 0.00 68 1003.9
20260904033603 78 0 0.0 0.0 0.00 0.00 0.00 67 1003.9
20260904032703 78 0 0.0 0.0 0.00 0.00 0.00 67 1003.9
20260904031824 78 0 0.0 0.0 0.00 0.00 0.00 67 1003.9
20260904030903 79 0 0.0 0.0 0.00 0.00 0.00 66 1003.9
20260904030003 79 0 0.0 0.0 0.00 0.00 0.00 65 1003.9
20260904025403 79 0 0.0 0.0 0.00 0.00 0.00 65 1003.9
20260904024503 79 0 0.0 0.0 0.00 0.00 0.00 65 1003.9
20260904023603 80 0 0.0 0.0 0.00 0.00 0.00 64 1003.9
20260904022724 80 0 0.0 0.0 0.00 0.00 0.00 64 1003.9
20260904021803 80 0 0.0 0.0 0.00 0.00 0.00 63 1003.9
20260904020904 81 157 0.0 1.0 0.00 0.00 0.00 62 1003.9
20260904020003 81 157 0.0 1.0 0.00 0.00 0.00 62 1002.9
20260904015403 81 0 0.0 0.0 0.00 0.00 0.00 62 1002.9
20260904014503 82 157 0.0 1.0 0.00 0.00 0.00 61 1002.9
20260904013603 82 0 0.0 0.0 0.00 0.00 0.00 62 1002.9
20260904012703 82 0 0.0 0.0 0.00 0.00 0.00 61 1002.9
20260904011803 83 0 0.0 0.0 0.00 0.00 0.00 61 1002.9
20260904010903 85 0 0.0 0.0 0.00 0.00 0.00 55 1002.9
20260904010003 85 0 0.0 0.0 0.00 0.00 0.00 55 1002.9
20260904005403 85 0 0.0 0.0 0.00 0.00 0.00 55 1002.9
20260904004503 85 0 0.0 0.0 0.00 0.00 0.00 55 1002.9
20260904003603 85 0 0.0 0.0 0.00 0.00 0.00 55 1002.9
20260904002724 85 0 0.0 0.0 0.00 0.00 0.00 55 1001.8
20260904001803 85 0 0.0 0.0 0.00 0.00 0.00 55 1001.8
20260904000924 86 0 0.0 0.0 0.00 0.00 0.00 54 1001.8
20260904000003 86 157 0.0 1.0 0.00 0.00 0.00 53 1001.8
20260903235403 86 157 0.0 1.0 0.00 0.00 0.00 52 1001.8
20260903234527 86 157 0.0 1.0 0.00 0.00 0.00 52 1001.8
20260903233603 87 157 1.0 1.0 0.00 0.00 0.00 52 1001.8
20260903232724 87 157 1.0 1.0 0.00 0.00 0.00 51 1001.8
20260903231803 87 180 0.0 1.0 0.00 0.00 0.00 50 1001.8
20260903230903 87 190 0.0 3.0 0.00 0.00 0.00 48 1001.8
20260903230003 87 183 0.0 3.0 0.00 0.00 0.00 48 1001.8
20260903225424 87 180 0.0 3.0 0.00 0.00 0.00 49 1001.8
20260903224503 88 184 1.0 3.0 0.00 0.00 0.00 48 1001.8
20260903223603 88 180 2.0 2.0 0.00 0.00 0.00 46 1001.8
20260903222703 88 272 0.0 4.0 0.00 0.00 0.00 45 1001.8
20260903221803 88 200 0.0 3.0 0.00 0.00 0.00 46 1001.8
20260903220903 88 163 0.0 3.0 0.00 0.00 0.00 48 1000.8
20260903220003 88 170 3.0 3.0 0.00 0.00 0.00 48 1000.8
20260903215403 88 170 0.0 3.0 0.00 0.00 0.00 50 1000.8
20260903214503 88 171 0.0 3.0 0.00 0.00 0.00 51 1000.8
20260903213603 89 170 0.0 6.0 0.00 0.00 0.00 52 1000.8
20260903212724 89 154 0.0 4.0 0.00 0.00 0.00 52 1000.8
20260903211803 89 158 4.0 4.0 0.00 0.00 0.00 51 1000.8
20260903210904 88 167 0.0 3.0 0.00 0.00 0.00 55 1000.8
20260903210025 88 172 0.0 3.0 0.00 0.00 0.00 55 1000.8
20260903205403 87 157 1.0 3.0 0.00 0.00 0.00 58 1000.8
20260903204504 87 157 0.0 3.0 0.00 0.00 0.00 59 1000.8
20260903203603 87 160 0.0 3.0 0.00 0.00 0.00 59 1000.8
20260903202703 87 157 0.0 3.0 0.00 0.00 0.00 59 1000.8
20260903201803 87 157 0.0 2.0 0.00 0.00 0.00 60 1000.8
20260903200903 87 160 0.0 2.0 0.00 0.00 0.00 59 1000.8
20260903200004 87 140 0.0 4.0 0.00 0.00 0.00 60 1001.8
20260903195403 87 140 0.0 4.0 0.00 0.00 0.00 60 1001.8
20260903194524 87 153 0.0 4.0 0.00 0.00 0.00 60 1001.8
20260903193624 86 161 0.0 4.0 0.00 0.00 0.00 61 1001.8
20260903192724 86 154 1.0 3.0 0.00 0.00 0.00 61 1001.8
20260903191803 86 166 0.0 5.0 0.00 0.00 0.00 61 1001.8
20260903190903 86 148 0.0 1.0 0.00 0.00 0.00 62 1001.8
20260903190003 86 161 1.0 3.0 0.00 0.00 0.00 62 1001.8
20260903185424 85 164 0.0 3.0 0.00 0.00 0.00 63 1001.8
20260903184503 85 171 0.0 4.0 0.00 0.00 0.00 63 1001.8
20260903183603 85 151 0.0 2.0 0.00 0.00 0.00 64 1001.8
20260903182704 84 151 0.0 3.0 0.00 0.00 0.00 64 1001.8
20260903181803 84 165 1.0 2.0 0.00 0.00 0.00 65 1001.8